Flag for Canada Weather past 2 weeks in Welland, Ontario, Canada

Now
17 °F

Cold.


Feels Like: 5 °F
Forecast: 13 / 20 °F
Wind: 12 mph from Northeast

Location: Port Colborne Airport

Current Time: Jan 27, 2015 at 1:56:57 PM

Latest Report: Jan 27, 2015 at 1:00 PM


Visibility: N/A

Pressure: 30.06 "Hg

Humidity: 69%

Dew point: 9 °F

Location of WellandLocation

Historic Weather in Welland — Graph

°F

Welland temperature yesterday

Maximum temperature yesterday: 20 °F (at 4:00 PM)
Minimum temperature yesterday: 13 °F (at 10:00 AM)
Average temperature yesterday: 16 °F

Past Weeks' High & Low Weather Summary

 TemperatureHumidityPressure
High41 °F (Jan 18, 4:00 AM)100% (Jan 12, 3:00 PM)30.80 "Hg (Jan 12, 3:00 PM)
Low3 °F (Jan 14, 3:00 AM)32% (Jan 16, 4:00 PM)29.51 "Hg (Jan 24, 3:00 PM)
Average22 °F74%30.08 "Hg
* Reported Jan 12 12:00 Noon — Jan 27 12:00 Noon, Welland, Weather by CustomWeather, © 2014

Note: Actual official high and low records may vary slightly from our data, if they occured in-between our weather recording intervals... More about our weather records

Advertising

Welland weather history for previous 24 hours

 ConditionsComfort  
Time TempWeatherWind HumidityBarometerVisibility
12:00 PM
Jan 27
17 °FCold.13 mph73%30.06 "HgN/A
11:00 AM16 °FCold.9 mph77%30.07 "HgN/A
10:00 AM15 °FCold.12 mph77%30.06 "HgN/A
9:00 AM17 °FCold.10 mph73%30.05 "HgN/A
8:00 AM15 °FCold.14 mph79%30.04 "HgN/A
7:00 AM17 °FCold.13 mph81%30.02 "HgN/A
6:00 AM17 °FCold.15 mph82%30.00 "HgN/A
5:00 AM17 °FCold.15 mph82%29.99 "HgN/A
4:00 AM17 °FCold.14 mph79%29.97 "HgN/A
3:00 AM17 °FCold.12 mph83%29.97 "HgN/A
2:00 AM17 °FCold.12 mph84%29.95 "HgN/A
1:00 AM16 °FCold.12 mph82%29.96 "HgN/A
12:00 AM17 °FCold.16 mph77%29.97 "HgN/A
11:00 PM
Jan 26
18 °FCold.16 mph73%29.98 "HgN/A
10:00 PM17 °FCold.16 mph79%29.98 "HgN/A
9:00 PM17 °FCold.16 mph77%29.98 "HgN/A
8:00 PM17 °FCold.18 mph76%29.98 "HgN/A
7:00 PM18 °FCold.15 mph78%29.97 "HgN/A
6:00 PM18 °FCold.17 mph79%29.94 "HgN/A
5:00 PM19 °FCold.15 mph79%29.93 "HgN/A
4:00 PM20 °FCold.17 mph81%29.91 "HgN/A
3:00 PM19 °FCold.17 mph75%29.90 "HgN/A
2:00 PM18 °FCold.18 mph74%29.90 "HgN/A
1:00 PM17 °FCold.18 mph79%29.92 "HgN/A
Weather by CustomWeather, © 2014

See weather overviewHow to use our weather pages